This is the latest recevied weather packets stored in our database for station/object KJ7HSW. If no packets are shown the sender has not sent any weather packets the latest 10 day(s).
| Time | Temp. | Humidity | Pressure | Rain* | Wind** | Luminosity | Snow |
|---|---|---|---|---|---|---|---|
| 1778106957 | 12.22° C | 90% | 1019.8 hPa | 0 mm | - | 53 W/m² | - |
| 1778106654 | 12.22° C | 90% | 1019.8 hPa | 0 mm | - | 55 W/m² | - |
| 1778106351 | 12.22° C | 91% | 1019.9 hPa | 0 mm | - | 57 W/m² | - |
| 1778106047 | 12.22° C | 91% | 1019.7 hPa | 0 mm | - | 63 W/m² | - |
| 1778105745 | 12.22° C | 90% | 1019.9 hPa | 0 mm | - | 62 W/m² | - |
| 1778105443 | 12.22° C | 90% | 1020 hPa | 0 mm | - | 76 W/m² | - |
| 1778105138 | 12.22° C | 90% | 1019.7 hPa | 0 mm | - | 74 W/m² | - |
| 1778104834 | 12.22° C | 89% | 1019.9 hPa | 0 mm | - | 75 W/m² | - |
| 1778104531 | 12.22° C | 90% | 1019.6 hPa | 0 mm | - | 81 W/m² | - |
| 1778104227 | 12.22° C | 91% | 1019.6 hPa | 0 mm | - | 90 W/m² | - |
| 1778103924 | 12.22° C | 90% | 1019.8 hPa | 0 mm | - | 74 W/m² | - |
| 1778103621 | 12.22° C | 91% | 1019.7 hPa | 0 mm | - | 74 W/m² | - |
| 1778103319 | 12.22° C | 90% | 1019.7 hPa | 0 mm | - | 78 W/m² | - |
| 1778103016 | 12.22° C | 91% | 1019.9 hPa | 0 mm | - | 71 W/m² | - |
| 1778102713 | 12.22° C | 91% | 1020 hPa | 0 mm | - | 66 W/m² | - |
| 1778102408 | 12.22° C | 90% | 1019.9 hPa | 0 mm | - | 60 W/m² | - |
| 1778102103 | 12.22° C | 90% | 1019.8 hPa | 0 mm | - | 67 W/m² | - |
| 1778101801 | 12.22° C | 90% | 1019.8 hPa | 0 mm | - | 73 W/m² | - |
| 1778101497 | 12.22° C | 90% | 1019.8 hPa | 0 mm | - | 80 W/m² | - |
| 1778101194 | 12.22° C | 90% | 1019.7 hPa | 0 mm | - | 80 W/m² | - |
| 1778100890 | 12.22° C | 90% | 1019.8 hPa | 0 mm | - | 70 W/m² | - |
| 1778100586 | 12.22° C | 90% | 1019.9 hPa | 0 mm | - | 82 W/m² | - |
| 1778100285 | 12.22° C | 91% | 1019.7 hPa | 0 mm | - | 93 W/m² | - |
| 1778099982 | 12.22° C | 90% | 1019.9 hPa | 0 mm | - | 78 W/m² | - |
| 1778099679 | 12.22° C | 90% | 1019.8 hPa | 0 mm | - | 69 W/m² | - |
* Rain latest hour (hover to see other rain measurements)
** Current wind speed in m/s (hover to see current wind gust speed)